User: anonymous   Login
Location: Eckley
(40.9930°N, 75.8630°W)
Time: 16:54:11
(UTC-05:00)
Language:

Cosmos 2221 Rocket - Orbit

View from above orbital plane
View from above orbital plane
View from above satellite
View from above satellite

Ground track
Ground track

The orbit data is extracted from the following two-line orbital elements,

1 22237U 92080B   14329.05848669  .00000477  00000-0  62861-4 0  5003
2 22237 082.5131 267.4470 0020211 027.5485 022.0572 14.77972971185292
Epoch (UTC): 25 November 2014 01:24:13
Eccentricity: 0.0020211
inclination: 82.5131°
perigee height: 621 km
apogee height: 650 km
right ascension of ascending node: 267.4470°
argument of perigee: 27.5485°
revolutions per day: 14.77972971
mean anomaly at epoch: 22.0572°
orbit number at epoch: 18529

The dashed part of the orbit path shows where the satellite is in the earth's shadow,  

DLR